Location: Arpaise
(41.0333°N, 14.7333°E)
Time: 01:10:43
(UTC+00:00)

Cosmos 1624 Rocket - Pass Details

Date: 05 July 2020
Orbit: 758 x 783 km, 74.0° (Epoch: 11 August)

Event Time Altitude Azimuth Distance (km) Brightness Sun altitude
Rises 22:08:53 0° 341° (NNW) 3,241 8.6 -24.9°
Reaches altitude 10° 22:11:17 10° 343° (NNW) 2,307 7.5 -25.0°
Maximum altitude 22:16:32 79° 70° (ENE) 778 3.9 -25.3°
Enters shadow 22:16:54 74° 120° (ESE) 793 3.8 -25.3°
